Wind_Speed
12 12 12 12 12 12 13 13 14 15 16 17 17 18 19 20 21 21 21 21 22 22 23 23 23 24 24 24 24 24 25 25 25 25 26 25 25 25 25 25 26 26 27
12 12 13 13 14 14 15 16 17 18 19 19 20 21 21 22 23 24 23 24 24 24 25 25 25 25 26 26 26 26 26 27 27 27 27 27 27 27 27 27 27 27 27
13 13 14 15 16 17 18 18 19 20 21 21 22 23 23 25 25 25 25 25 26 26 27 27 27 27 27 28 28 28 28 28 28 28 28 28 28 28 28 29 29 29 29
14 14 15 16 18 19 20 21 22 23 23 24 24 25 26 26 26 26 27 27 28 28 29 29 29 29 29 30 30 30 30 30 29 29 29 30 30 30 30 30 30 30 30
15 16 17 19 20 21 22 23 24 25 25 26 27 27 27 27 28 28 28 29 29 30 30 31 31 31 31 31 31 31 31 31 31 31 31 31 32 32 32 31 31 31 32
17 18 19 21 22 23 24 25 25 26 27 27 28 28 29 29 30 30 30 31 31 32 32 32 33 33 33 33 33 33 33 33 33 33 33 33 33 34 34 33 33 33 33
21 22 22 23 24 26 27 27 28 28 29 29 30 31 31 32 32 32 32 32 32 32 33 34 34 34 34 34 34 34 34 35 35 35 34 34 35 35 36 35 35 35 35
24 25 25 26 27 28 30 30 30 31 31 32 32 32 33 34 35 35 34 34 34 35 35 35 35 35 36 36 36 36 36 37 37 37 36 36 37 38 38 38 37 37 37
27 27 28 29 30 31 32 33 33 33 33 35 35 35 35 35 35 35 36 36 36 37 37 38 38 37 37 38 38 38 39 39 40 40 39 39 39 39 40 40 40 40 39
29 30 32 33 33 34 34 34 35 35 35 36 36 36 36 36 36 37 38 39 39 39 39 40 39 39 39 40 40 41 41 42 43 42 42 41 41 41 41 41 42 42 41
32 33 35 36 36 36 36 37 37 38 37 37 37 36 37 37 38 39 40 41 42 42 41 41 41 41 41 42 43 44 44 45 45 45 44 44 44 44 44 43 43 43 42
34 35 36 37 37 37 37 37 38 39 39 37 37 38 38 39 40 41 42 43 44 44 44 44 44 45 45 46 46 47 47 48 48 48 47 47 46 45 45 44 44 44 43
36 37 37 38 38 37 37 37 38 37 37 38 39 40 41 42 43 43 43 44 44 45 46 47 48 49 50 50 50 50 50 51 51 50 50 49 48 47 47 46 45 44 43
38 39 38 38 39 39 39 39 38 37 38 39 39 40 41 42 44 44 45 47 48 49 50 51 51 52 53 53 54 53 53 53 53 53 51 50 49 49 48 47 46 45 43
39 38 38 38 38 38 39 38 38 38 38 39 40 42 43 44 45 47 48 50 52 53 54 55 56 56 56 56 56 56 55 54 54 54 53 51 50 50 48 47 46 45 44
38 38 38 38 39 39 38 38 38 39 40 41 42 44 46 47 48 50 52 53 54 56 57 57 58 58 58 58 58 57 56 55 55 54 53 52 51 49 48 46 45 44 43
38 38 39 39 39 39 38 39 40 41 42 43 44 46 48 50 51 53 54 55 56 58 59 59 59 59 59 59 58 57 56 55 54 53 52 50 49 48 47 45 44 43 42
38 39 39 40 40 40 40 41 42 43 44 45 47 49 51 53 54 55 56 57 58 59 60 60 59 59 58 57 55 53 52 51 50 50 48 47 46 46 45 44 42 41 40
38 38 38 39 40 41 41 42 43 45 46 48 50 51 53 55 56 57 58 59 60 59 59 58 58 56 55 53 51 50 49 47 46 46 45 45 44 43 41 40 39 37 37
39 39 40 41 42 43 44 45 47 48 50 52 54 55 56 57 57 58 58 58 58 57 56 55 54 52 50 49 47 46 45 44 42 42 42 41 41 39 38 37 36 35 35
40 41 41 42 43 45 47 48 49 51 52 53 55 56 57 57 57 57 56 55 54 54 53 51 49 48 46 44 44 43 41 40 39 38 38 37 36 35 34 34 33 33 33
41 42 43 45 47 48 50 51 51 52 53 54 55 55 55 54 54 53 52 51 51 49 49 47 45 44 43 43 42 41 39 37 35 35 35 34 32 32 33 33 32 31 31
43 45 46 48 49 50 51 52 52 53 53 53 53 53 52 51 49 49 48 47 46 45 44 43 41 40 39 38 37 36 34 33 32 32 32 31 30 30 31 31 30 30 30
46 47 48 49 50 50 51 51 51 51 51 51 50 49 48 46 46 44 43 42 42 41 40 38 36 35 34 33 32 32 30 30 30 29 28 28 27 27 28 28 28 28 29
48 48 48 48 48 48 48 48 47 47 46 45 45 44 43 42 41 40 39 38 37 37 35 34 32 31 29 29 28 28 27 27 26 26 25 25 24 24 24 25 25 25 26
46 46 46 46 46 45 45 44 43 42 42 41 40 39 38 38 37 36 35 34 32 31 30 28 27 27 26 26 25 24 23 22 22 21 21 20 20 20 20 20 21 21 21
Wind_Direction
232 232 235 241 243 248 254 260 266 270 274 276 280 283 287 291 294 298 299 302 304 304 305 305 306 306 307 307 307 308 308 308 308 308 309 309 307 305 302 298 295 292 289
236 238 244 247 250 255 260 265 269 273 276 278 281 283 287 290 292 295 298 300 300 301 302 302 303 303 304 305 305 306 306 306 305 305 306 306 305 304 302 300 297 294 291
242 246 250 252 255 259 263 267 270 274 276 279 282 284 286 289 290 292 295 296 298 299 299 299 300 301 302 302 303 304 304 304 304 304 304 303 303 302 302 300 298 296 293
252 255 258 261 263 265 267 270 272 275 278 280 282 285 286 287 289 290 292 294 295 297 297 297 298 299 299 299 300 300 301 302 302 302 302 302 301 301 301 300 299 297 294
260 262 263 264 266 269 271 273 275 277 279 280 282 284 286 287 288 289 291 292 293 294 295 295 295 295 297 297 298 299 298 299 299 300 301 300 300 300 300 299 298 297 295
265 266 268 269 271 273 275 276 277 278 279 281 282 283 285 286 286 288 289 290 291 292 292 293 294 294 295 296 296 297 297 296 297 298 299 299 299 299 299 299 298 297 296
269 271 272 274 275 277 277 277 278 278 279 281 281 282 283 283 284 286 287 289 291 292 292 293 293 292 292 293 294 295 295 295 295 296 297 298 298 298 298 298 297 296 295
272 273 276 276 277 279 280 279 279 278 277 279 280 281 281 282 283 284 286 287 290 290 291 292 293 293 292 292 292 293 294 294 294 295 295 296 297 296 296 296 295 295 294
275 275 277 277 279 280 281 280 279 280 279 278 279 280 281 282 282 284 286 287 289 289 290 291 292 292 291 291 291 292 293 292 293 293 293 294 294 294 294 294 294 293 293
277 276 277 277 279 279 280 281 279 279 280 281 279 280 280 281 283 285 287 289 291 291 291 291 291 291 291 291 291 292 292 292 292 292 293 292 293 292 292 292 292 292 292
280 279 278 277 276 278 279 279 281 280 280 281 281 281 281 283 285 286 288 289 291 291 291 291 291 290 290 291 292 292 292 291 291 291 292 292 292 291 290 290 290 290 291
279 280 282 280 279 278 279 281 284 283 280 281 282 282 282 282 285 287 288 289 290 290 291 292 292 292 292 292 292 291 291 291 290 290 290 290 290 289 288 288 288 288 289
280 282 282 283 281 281 281 282 284 282 281 282 283 283 283 284 286 288 290 290 291 291 291 291 291 291 292 292 292 292 291 291 290 289 289 289 288 286 286 286 286 286 286
280 281 281 282 283 283 281 282 282 282 283 283 284 284 285 287 288 290 291 291 291 292 292 292 292 292 292 292 292 291 291 290 289 288 288 286 286 285 285 285 285 285 284
281 281 281 282 282 282 281 282 283 283 284 286 286 288 289 289 290 291 291 292 292 293 293 293 293 292 292 291 291 290 289 288 287 287 286 285 284 284 283 283 284 283 282
282 282 283 284 284 282 282 282 283 284 285 287 289 290 291 291 292 292 293 293 293 294 294 293 293 293 292 292 291 289 288 287 286 285 285 284 283 282 282 281 281 280 279
281 282 284 285 285 284 284 285 286 286 287 289 289 290 291 291 293 294 294 294 294 294 294 294 293 292 292 291 290 289 287 286 286 285 284 282 281 280 279 279 278 277 276
285 284 285 285 284 284 284 285 287 288 289 290 291 291 291 293 294 294 294 294 294 294 294 294 294 293 292 291 290 288 287 285 284 283 281 280 279 278 277 276 275 275 274
288 288 288 287 286 287 288 289 291 291 291 292 293 294 294 294 294 295 295 295 295 295 295 295 295 294 292 291 289 288 286 284 283 281 280 278 277 275 274 273 272 271 271
289 288 289 289 289 290 291 292 293 293 294 294 295 295 296 296 296 296 296 297 296 296 296 296 295 294 292 290 288 287 285 284 282 280 279 277 275 273 272 270 269 268 268
290 290 289 289 290 292 293 293 293 294 294 295 295 296 296 296 297 297 297 297 297 297 297 296 295 293 291 288 287 287 286 284 281 280 278 276 273 270 268 267 267 266 266
293 293 293 293 292 293 293 293 294 295 295 296 296 296 296 296 297 297 297 297 297 297 298 297 295 293 290 288 287 286 284 282 280 278 278 276 272 269 266 265 265 265 266
295 295 295 295 294 294 295 295 296 296 297 297 297 297 297 297 297 297 298 298 297 297 298 297 296 294 292 289 288 286 284 281 279 278 275 273 271 269 267 265 263 263 264
296 295 295 296 296 296 296 297 297 297 298 298 298 298 298 297 298 298 298 298 298 298 297 296 295 295 294 291 289 287 285 283 281 279 275 272 269 268 267 265 263 263 262
297 297 297 297 297 297 298 298 299 299 299 299 299 299 299 298 298 299 299 299 299 299 297 296 295 295 295 294 292 289 285 282 280 276 275 273 271 269 267 265 263 262 260
298 298 297 297 298 298 298 299 300 300 300 300 300 300 300 300 299 300 300 300 300 300 299 297 296 296 295 295 295 292 287 285 282 278 275 273 271 269 267 265 262 261 259
Height
5850 5852 5854 5856 5857 5858 5860 5861 5862 5863 5863 5863 5863 5863 5863 5862 5862 5861 5860 5859 5857 5856 5855 5853 5851 5850 5848 5846 5844 5842 5840 5838 5836 5834 5832 5830 5828 5826 5824 5822 5820 5819 5818
5848 5850 5851 5853 5854 5855 5856 5857 5858 5859 5859 5859 5859 5858 5858 5857 5857 5856 5855 5854 5852 5851 5849 5848 5846 5844 5842 5840 5839 5836 5834 5832 5830 5828 5825 5823 5821 5819 5817 5815 5813 5812 5810
5846 5847 5849 5850 5851 5852 5852 5853 5854 5854 5854 5854 5854 5853 5852 5852 5851 5850 5849 5848 5846 5845 5843 5842 5840 5838 5836 5834 5832 5830 5828 5825 5823 5821 5819 5816 5814 5812 5810 5808 5805 5804 5802
5843 5844 5845 5846 5847 5848 5848 5849 5849 5849 5849 5848 5848 5847 5846 5845 5844 5843 5842 5841 5840 5838 5836 5835 5833 5831 5829 5827 5825 5823 5821 5818 5816 5814 5811 5809 5806 5804 5802 5800 5798 5795 5793
5840 5841 5842 5842 5843 5843 5843 5843 5843 5843 5842 5842 5841 5840 5839 5838 5837 5836 5835 5834 5832 5831 5829 5827 5826 5824 5822 5819 5817 5815 5813 5810 5808 5806 5803 5801 5798 5796 5793 5791 5789 5787 5785
5836 5837 5837 5837 5837 5837 5837 5837 5837 5836 5835 5834 5834 5833 5832 5831 5830 5828 5827 5826 5824 5823 5821 5819 5817 5815 5813 5811 5809 5806 5804 5802 5799 5797 5795 5792 5789 5786 5784 5781 5779 5777 5776
5831 5832 5832 5832 5831 5831 5830 5830 5829 5828 5827 5826 5825 5824 5824 5822 5821 5819 5818 5817 5815 5814 5812 5810 5808 5806 5804 5802 5799 5797 5795 5792 5790 5787 5785 5782 5780 5777 5774 5772 5769 5767 5765
5825 5825 5825 5825 5824 5823 5823 5822 5821 5820 5819 5818 5816 5815 5815 5813 5811 5810 5809 5807 5806 5804 5803 5801 5798 5796 5794 5791 5789 5787 5785 5783 5780 5777 5775 5772 5769 5766 5763 5761 5758 5756 5755
5818 5818 5818 5817 5816 5815 5814 5813 5812 5811 5809 5808 5807 5805 5805 5803 5802 5800 5799 5798 5796 5795 5792 5790 5788 5786 5784 5781 5779 5777 5774 5772 5768 5766 5764 5762 5759 5756 5752 5750 5747 5745 5743
5810 5810 5809 5808 5807 5806 5805 5804 5803 5801 5799 5797 5796 5795 5794 5793 5792 5790 5788 5787 5785 5784 5782 5779 5777 5774 5772 5769 5767 5765 5763 5760 5757 5754 5752 5749 5747 5744 5741 5738 5735 5732 5730
5802 5801 5799 5797 5796 5796 5795 5794 5793 5792 5790 5788 5786 5786 5785 5783 5782 5780 5778 5776 5774 5772 5770 5767 5765 5762 5760 5757 5754 5752 5750 5746 5744 5741 5739 5736 5734 5731 5728 5725 5722 5719 5717
5793 5792 5790 5787 5786 5785 5785 5784 5783 5781 5780 5778 5777 5776 5774 5772 5771 5769 5767 5764 5762 5759 5757 5755 5752 5749 5746 5744 5741 5738 5735 5732 5729 5727 5725 5722 5720 5717 5715 5712 5709 5706 5704
5784 5783 5782 5780 5777 5775 5775 5774 5772 5770 5769 5767 5766 5765 5763 5761 5759 5757 5754 5752 5749 5746 5744 5742 5739 5735 5732 5729 5726 5722 5719 5716 5713 5711 5709 5707 5705 5702 5699 5697 5695 5693 5690
5775 5773 5771 5770 5768 5766 5765 5764 5762 5760 5759 5757 5755 5754 5752 5749 5747 5744 5741 5738 5735 5732 5730 5727 5724 5720 5716 5713 5709 5706 5702 5699 5696 5694 5692 5690 5688 5686 5684 5682 5680 5678 5676
5765 5763 5761 5760 5758 5756 5755 5753 5752 5750 5748 5746 5744 5741 5739 5737 5734 5731 5727 5724 5720 5717 5714 5710 5707 5703 5699 5696 5692 5688 5685 5682 5679 5676 5674 5673 5671 5669 5668 5666 5665 5663 5661
5754 5753 5751 5749 5748 5746 5744 5742 5740 5739 5737 5734 5732 5729 5727 5724 5720 5717 5713 5709 5704 5700 5696 5693 5689 5685 5681 5677 5673 5670 5667 5663 5661 5658 5656 5655 5653 5652 5651 5650 5648 5647 5646
5744 5742 5740 5738 5737 5735 5733 5731 5729 5726 5724 5722 5719 5716 5713 5709 5706 5701 5697 5693 5688 5683 5679 5675 5670 5666 5662 5658 5654 5651 5648 5645 5642 5640 5638 5637 5635 5634 5633 5633 5632 5631 5631
5733 5731 5729 5727 5725 5723 5721 5719 5716 5714 5711 5708 5705 5701 5698 5694 5690 5685 5681 5676 5672 5666 5661 5656 5652 5647 5643 5639 5635 5632 5629 5626 5624 5622 5620 5619 5618 5617 5616 5616 5616 5616 5616
5722 5720 5718 5715 5713 5710 5708 5706 5703 5700 5697 5694 5690 5686 5682 5678 5673 5668 5662 5658 5653 5648 5642 5637 5633 5628 5624 5620 5617 5614 5611 5609 5607 5605 5603 5602 5601 5601 5601 5601 5602 5602 5602
5711 5708 5706 5703 5701 5698 5695 5692 5689 5686 5682 5678 5674 5669 5665 5660 5655 5650 5645 5639 5634 5630 5625 5620 5615 5610 5606 5603 5599 5597 5594 5592 5590 5589 5588 5587 5586 5586 5587 5587 5588 5589 5589
5699 5696 5694 5691 5688 5685 5681 5678 5674 5670 5666 5662 5657 5652 5647 5642 5638 5633 5628 5622 5617 5612 5608 5603 5599 5594 5590 5587 5584 5581 5579 5578 5576 5574 5573 5573 5573 5573 5574 5574 5575 5576 5577
5686 5683 5680 5677 5674 5670 5667 5663 5658 5654 5650 5645 5640 5636 5630 5626 5621 5616 5612 5607 5602 5597 5592 5587 5583 5579 5575 5572 5569 5567 5565 5564 5563 5561 5560 5560 5560 5561 5561 5562 5563 5565 5566
5673 5670 5666 5662 5658 5655 5651 5646 5642 5637 5633 5628 5623 5619 5614 5610 5605 5601 5596 5592 5587 5583 5578 5573 5569 5566 5562 5558 5555 5553 5552 5552 5551 5550 5549 5549 5549 5550 5550 5551 5552 5554 5555
5659 5655 5651 5647 5643 5639 5634 5630 5625 5621 5616 5612 5607 5603 5599 5595 5591 5587 5582 5578 5574 5570 5565 5561 5557 5554 5551 5548 5545 5543 5542 5540 5540 5539 5539 5539 5539 5539 5540 5541 5542 5544 5545
5645 5640 5636 5632 5628 5624 5619 5615 5611 5606 5602 5597 5593 5589 5585 5581 5578 5574 5570 5566 5562 5558 5554 5550 5547 5544 5541 5538 5536 5534 5532 5531 5530 5530 5530 5530 5530 5530 5531 5532 5533 5535 5536
5630 5626 5621 5617 5613 5609 5605 5601 5597 5593 5589 5585 5581 5577 5574 5570 5566 5563 5559 5556 5552 5549 5545 5542 5538 5536 5533 5530 5528 5526 5525 5524 5523 5522 5522 5522 5522 5523 5523 5525 5526 5527 5529